CAPE
2 99 137 85 109 117 126 109 71 57 38 49 42 39 31 24 111 224 272 260 47 0 0 0 76 845 1193 790 731 743 904 1091 1127 993 839 727 997 1042 938 628 713 625 717
12 31 74 84 121 150 163 106 76 68 123 213 248 213 189 406 697 747 525 163 2 0 0 43 30 273 1072 1179 884 775 686 657 891 929 865 330 390 1000 908 681 929 616 713
7 30 58 86 110 181 156 85 93 238 314 322 308 343 626 1053 1076 1049 1008 1036 1026 904 876 856 640 231 542 1051 758 486 602 584 343 111 304 317 396 920 1005 980 883 929 785
10 20 27 111 154 164 132 85 183 278 289 330 390 577 947 952 940 905 785 693 581 533 470 493 686 556 271 570 556 413 318 579 106 258 417 290 228 801 1081 1004 855 936 869
36 39 42 127 193 144 110 108 190 164 170 217 382 590 881 863 923 711 634 434 119 6 0 0 4 264 213 252 524 396 440 661 176 385 218 307 442 462 774 893 914 668 719
26 0 71 130 177 109 63 60 105 82 78 191 616 732 868 815 573 570 469 169 1 0 0 0 38 0 0 267 544 300 65 285 490 339 525 225 484 748 799 548 630 706 703
0 0 73 142 134 61 33 56 63 46 50 105 612 750 754 727 594 513 219 28 3 501 442 198 29 16 28 3 176 324 189 147 418 352 368 351 424 475 612 567 538 716 747
0 0 22 111 96 36 17 27 29 25 28 72 322 605 581 472 360 246 75 13 13 205 321 366 211 69 17 28 344 401 297 267 262 177 312 402 133 319 404 373 429 451 600
0 0 0 0 15 22 0 0 16 23 13 17 61 255 205 154 138 79 47 1 0 0 0 33 65 245 358 399 326 187 20 17 151 150 175 286 436 448 336 360 246 253 318
0 0 0 0 0 0 0 0 29 25 0 0 16 49 52 6 0 0 0 0 0 0 0 0 12 35 9 28 105 37 13 33 48 75 120 235 608 631 479 215 208 191 207
0 0 0 0 0 0 0 0 0 10 0 0 0 0 0 6 1 21 0 0 0 0 0 0 0 6 15 17 25 0 6 34 34 37 79 140 297 548 546 519 312 243 233
0 0 0 0 0 0 0 0 0 0 11 31 27 18 16 51 19 16 0 0 0 0 0 0 0 0 31 60 22 14 24 12 11 8 20 0 3 151 409 497 401 369 437
0 0 0 0 0 0 0 0 0 0 19 63 95 108 124 63 91 121 111 126 101 3 67 7 8 15 13 44 20 6 1 4 2 2 2 0 0 1 9 198 241 254 373
0 0 0 0 0 0 0 0 0 0 0 0 0 78 122 278 384 418 181 158 212 78 37 15 13 3 19 20 9 5 7 5 5 1 6 0 0 0 0 2 165 128 172
0 0 0 0 0 0 0 0 0 0 0 0 0 22 160 398 779 730 480 224 114 140 45 8 15 15 17 27 24 5 11 5 1 0 1 0 0 0 0 0 0 13 70
0 0 0 0 0 0 0 0 0 0 0 0 59 181 336 549 929 847 764 280 81 9 18 9 2 21 25 18 28 15 9 17 2 0 0 0 0 0 0 0 0 0 2
0 0 0 0 0 0 0 0 0 0 0 2 83 228 516 798 1043 1334 768 466 492 42 49 55 0 0 29 24 26 23 13 0 8 0 0 0 0 0 0 0 0 0 0
0 37 79 0 31 75 0 0 0 0 0 39 193 402 763 1029 1124 967 679 339 159 153 76 29 2 6 16 16 9 23 18 1 2 0 0 0 0 0 0 0 0 0 0
131 114 351 137 15 158 97 4 0 0 9 77 178 334 597 822 931 1051 868 356 915 241 185 107 8 11 29 18 5 2 3 5 8 6 0 0 0 0 0 0 0 0 0
359 363 563 645 362 133 288 261 60 48 39 52 144 267 466 859 1103 1310 613 1042 855 406 244 230 147 84 41 31 1 1 2 6 5 3 0 0 0 0 0 0 0 0 0
603 627 647 945 1069 875 384 332 311 248 152 141 146 208 417 810 1229 1577 810 1153 861 600 572 589 391 319 117 67 16 22 21 26 19 0 0 0 0 0 0 0 0 0 0
636 677 837 971 1341 1546 931 629 523 607 574 568 545 773 876 958 1308 1233 1339 1089 965 539 893 711 568 259 204 175 58 27 65 45 47 32 40 43 23 4 0 0 0 0 0
557 628 728 1074 1244 1618 1294 1042 1083 1257 1316 1204 1058 1255 1332 1354 1435 1533 1551 1385 1052 878 658 879 613 499 166 232 250 87 13 14 45 66 118 82 61 70 54 37 18 1 0
600 632 732 1000 1316 1527 1561 1131 1240 1141 1188 1226 1292 1358 1370 1688 1601 1655 1368 1250 1343 853 829 864 694 591 586 174 282 178 142 102 123 128 167 312 328 193 189 161 93 68 54
508 451 734 946 1263 1345 1472 1293 1350 1299 1192 1759 1999 1671 1738 1363 1559 1475 1514 1195 1397 1307 1061 977 751 686 397 385 444 336 376 465 485 519 206 240 328 454 421 290 328 314 252
563 527 631 941 1107 1288 1452 1626 1499 1597 1753 1960 1967 1810 1806 1469 1668 1333 1530 1596 1401 1496 874 653 958 790 679 528 412 445 342 535 388 295 486 200 227 246 365 394 409 460 490
CIN
-0 -38 -98 -80 -69 -83 -92 -124 -158 -183 -210 -228 -251 -259 -243 -163 -210 -156 -120 -105 -108 -0 -0 -0 -45 -0 -0 -0 -1 -2 -0 -0 -0 -0 -4 -9 -0 -0 -0 -11 -15 -1 -0
-64 -98 -92 -97 -63 -67 -83 -124 -158 -179 -165 -141 -152 -175 -179 -112 -56 -37 -59 -128 -33 -0 -0 -70 -52 -19 -0 -0 -0 -0 -4 -7 -0 -0 -7 -30 -21 -0 -3 -13 -11 -10 -0
-86 -121 -98 -102 -82 -72 -99 -152 -165 -128 -112 -129 -153 -148 -75 -22 -14 -4 -0 -0 -0 -0 -0 -0 -0 -18 -8 -0 -2 -15 -10 -12 -30 -48 -25 -0 -1 -1 -0 -0 -3 -0 -0
-83 -118 -152 -94 -90 -94 -131 -177 -146 -126 -139 -155 -157 -109 -45 -35 -25 -7 -3 -1 -0 -1 -4 -2 -0 -1 -19 -8 -12 -20 -29 -16 -45 -43 -6 -1 -1 -5 -0 -0 -2 -0 -1
-78 -113 -109 -99 -140 -117 -160 -175 -134 -160 -178 -193 -164 -114 -52 -39 -19 -29 -25 -32 -79 -36 -0 -0 -22 -30 -34 -29 -15 -26 -28 -25 -44 -23 -0 -1 -1 -18 -4 -1 -3 -10 -9
-127 -3 -113 -132 -154 -137 -176 -177 -167 -190 -219 -184 -104 -80 -48 -42 -72 -52 -46 -81 -37 -0 -0 -0 -99 -0 -1 -34 -17 -30 -62 -43 -36 -0 -0 -7 -0 -9 -1 -10 -6 -7 -8
-0 -0 -117 -130 -135 -151 -196 -201 -212 -250 -259 -213 -88 -58 -49 -46 -61 -58 -98 -147 -30 -13 -16 -40 -127 -77 -87 -12 -39 -33 -39 -41 -5 -0 -0 -0 -6 -5 -3 -6 -9 -6 -7
-0 -0 -71 -128 -122 -168 -226 -234 -253 -282 -286 -232 -118 -56 -53 -74 -92 -101 -158 -120 -86 -45 -28 -26 -43 -54 -43 -65 -29 -28 -34 -35 -2 -9 -0 -5 -37 -10 -8 -12 -10 -9 -3
-0 -0 -0 -0 -103 -173 -0 -0 -292 -298 -312 -288 -224 -115 -115 -139 -115 -133 -186 -18 -0 -0 -2 -133 -112 -51 -26 -22 -29 -39 -48 -31 -15 -16 -6 -0 -8 -8 -15 -14 -22 -22 -14
-0 -0 -0 -0 -0 -0 -0 -0 -295 -294 -0 -0 -265 -188 -150 -85 -0 -0 -0 -0 -0 -0 -0 -0 -35 -130 -32 -34 -60 -91 -38 -27 -2 -21 -47 -2 -0 -0 -10 -28 -30 -35 -28
-0 -0 -0 -0 -0 -0 -0 -0 -0 -206 -0 -0 -0 -0 -0 -0 -0 -37 -0 -0 -0 -0 -0 -0 -0 -26 -32 -36 -35 -0 -19 -1 -1 -2 -34 -8 -1 -0 -0 -0 -10 -22 -26
-0 -0 -0 -0 -0 -0 -0 -0 -0 -0 -195 -124 -105 -45 -19 -12 -18 -27 -0 -0 -0 -0 -0 -0 -0 -0 -30 -41 -5 -9 -1 -0 -2 -0 -2 -0 -32 -7 -0 -0 -1 -2 -4
-0 -0 -0 -0 -0 -0 -0 -0 -0 -0 -110 -67 -58 -35 -18 -13 -7 -34 -46 -58 -49 -28 -88 -3 -0 -1 -0 -0 -2 -1 -0 -0 -1 -0 -2 -0 -0 -0 -0 -7 -6 -4 -0
-0 -0 -0 -0 -0 -0 -0 -0 -0 -0 -0 -0 -0 -32 -10 -2 -2 -0 -25 -35 -11 -33 -1 -1 -2 -0 -1 -0 -2 -1 -1 -0 -1 -1 -5 -0 -0 -0 -0 -0 -5 -6 -3
-0 -0 -0 -0 -0 -0 -0 -0 -0 -0 -0 -0 -0 -9 -2 -0 -0 -4 -0 -9 -78 -72 -0 -1 -1 -1 -1 -0 -1 -0 -1 -0 -0 -0 -0 -0 -0 -0 -0 -0 -0 -0 -15
-0 -0 -0 -0 -0 -0 -0 -0 -0 -0 -0 -0 -49 -15 -25 -1 -0 -1 -1 -11 -88 -1 -1 -0 -1 -1 -1 -1 -0 -0 -0 -1 -0 -0 -0 -0 -0 -0 -0 -0 -0 -0 -0
-0 -0 -0 -0 -0 -0 -0 -0 -0 -0 -0 -63 -63 -43 -25 -13 -7 -3 -2 -1 -2 -33 -69 -108 -0 -0 -0 -2 -2 -0 -0 -0 -1 -0 -0 -0 -0 -0 -0 -0 -0 -0 -0
-0 -159 -184 -0 -190 -188 -0 -0 -0 -0 -0 -88 -64 -16 -17 -8 -19 -23 -2 -9 -10 -27 -28 -12 -1 -0 -21 -1 -1 -1 -1 -0 -0 -0 -0 -0 -0 -0 -0 -0 -0 -0 -0
-120 -129 -125 -137 -168 -139 -171 -68 -0 -0 -93 -91 -59 -24 -9 -8 -1 -20 -0 -13 -3 -11 -10 -25 -25 -24 -31 -46 -1 -0 -0 -2 -1 -1 -0 -0 -0 -0 -0 -0 -0 -0 -0
-96 -107 -74 -87 -103 -140 -132 -145 -149 -153 -165 -137 -76 -35 -12 -3 -1 -3 -0 -0 -2 -4 -24 -28 -8 -18 -34 -37 -0 -0 -0 -2 -1 -1 -0 -0 -0 -0 -0 -0 -0 -0 -0
-86 -105 -105 -87 -92 -106 -137 -114 -93 -95 -90 -87 -73 -83 -25 -10 -0 -1 -0 -1 -2 -2 -4 -4 -15 -17 -15 -41 -51 -52 -42 -57 -32 -0 -0 -0 -0 -0 -0 -0 -0 -0 -0
-100 -114 -118 -107 -102 -105 -101 -94 -68 -43 -30 -32 -23 -23 -27 -16 -3 -0 -1 -0 -1 -1 -2 -8 -20 -97 -15 -11 -12 -15 -2 -5 -39 -53 -53 -37 -58 -17 -0 -0 -0 -0 -0
-130 -141 -140 -129 -125 -128 -101 -99 -90 -53 -36 -27 -20 -15 -14 -14 -2 -0 -0 -1 -0 -3 -2 -4 -15 -30 -18 -43 -30 -2 -6 -22 -15 -7 -63 -32 -23 -21 -24 -25 -45 -16 -0
-123 -130 -160 -149 -151 -145 -134 -87 -87 -49 -15 -4 -1 -1 -3 -3 -6 -0 -1 -0 -1 -1 -0 -0 -1 -1 -2 -3 -19 -14 -15 -16 -1 -2 -11 -3 -3 -24 -37 -9 -8 -22 -27
-137 -153 -148 -170 -175 -167 -153 -117 -88 -64 -2 -2 -1 -1 -7 -10 -6 -0 -1 -4 -3 -0 -0 -2 -4 -8 -8 -1 -1 -30 -6 -1 -1 -0 -6 -12 -6 -3 -1 -22 -4 -1 -2
-91 -143 -160 -192 -202 -192 -164 -159 -105 -48 -22 -2 -1 -2 -1 -13 -4 -8 -0 -2 -3 -0 -8 -20 -18 -11 -3 -2 -2 -2 -7 -0 -1 -9 -3 -2 -13 -3 -13 -4 -2 -0 -1
Wind_Speed
18 18 18 20 21 20 21 21 21 21 22 22 23 23 24 24 24 24 24 23 22 21 19 18 17 16 16 16 16 16 16 16 16 16 16 16 15 14 14 13 13 12 11
20 19 20 21 21 21 20 20 21 21 22 22 23 24 24 24 25 24 25 25 24 22 20 19 18 16 16 16 16 16 16 16 16 16 15 16 16 15 14 14 15 12 11
21 21 22 23 22 21 21 20 20 21 22 23 23 24 24 24 25 26 25 25 25 24 22 20 18 17 16 16 16 16 17 16 16 16 16 16 16 16 15 14 13 12 11
23 23 23 23 22 21 20 20 21 22 22 22 23 23 24 24 25 26 26 26 26 25 23 21 19 17 16 16 16 16 16 16 16 15 13 17 16 16 15 14 13 12 11
23 23 21 22 22 21 20 21 22 22 22 23 23 23 24 24 25 26 26 26 27 26 24 23 21 20 18 17 17 18 17 15 15 14 15 16 16 16 15 15 13 12 12
23 22 22 23 23 22 21 21 22 22 22 23 23 24 24 24 25 25 26 26 26 25 24 23 21 20 19 18 17 17 17 16 15 15 16 16 17 17 16 15 14 13 12
23 23 24 24 23 22 22 22 22 22 23 23 23 24 24 24 24 25 26 26 26 26 25 23 22 21 19 18 18 18 17 16 15 16 16 17 18 18 17 16 15 13 12
24 24 23 23 23 23 23 23 23 22 22 23 23 23 23 23 23 24 25 26 27 27 27 25 23 22 21 20 19 19 18 16 16 17 17 18 18 18 17 16 15 14 12
24 24 24 23 23 23 23 23 22 22 22 21 21 22 22 22 22 23 24 25 26 26 25 25 25 24 23 23 22 21 20 18 17 17 17 17 18 17 17 16 14 14 12
24 24 24 24 24 23 22 22 22 21 21 20 20 20 20 21 21 22 22 24 24 26 25 24 24 23 24 24 23 21 18 16 18 18 17 17 17 17 16 15 14 13 12
25 24 24 24 23 23 22 22 21 20 19 18 19 18 18 18 19 20 20 21 22 23 24 24 22 21 22 23 22 18 14 16 19 17 18 16 17 17 16 16 15 13 12
25 25 25 24 23 23 21 21 20 19 18 17 17 17 17 18 18 19 20 19 20 20 21 21 21 19 17 19 20 16 18 18 17 14 19 17 16 16 16 15 15 13 12
25 25 25 24 24 22 20 20 19 18 17 16 16 16 17 17 17 16 17 17 18 18 17 19 20 18 18 18 20 20 20 19 20 18 20 19 18 17 16 15 15 13 12
25 25 24 23 23 21 19 19 17 17 16 16 15 15 15 15 15 15 16 17 17 18 18 20 21 19 18 18 19 20 20 20 21 20 20 19 18 17 17 15 14 13 11
24 24 23 22 21 20 18 17 16 15 15 14 14 14 14 14 14 15 16 16 17 17 17 18 19 18 16 16 17 17 19 20 20 20 19 19 17 16 16 14 13 13 12
22 21 23 21 19 19 17 15 14 14 13 13 13 13 12 12 13 13 13 15 16 16 15 16 17 17 15 14 14 15 15 17 18 19 19 17 17 16 15 14 13 11 10
21 19 20 19 17 17 16 13 12 12 11 11 11 10 10 10 11 12 14 13 14 15 14 15 15 15 14 14 12 13 13 14 15 16 16 18 15 15 15 14 13 12 10
18 16 16 16 15 15 13 11 9 8 9 8 9 9 9 8 10 11 11 14 15 13 13 13 14 14 14 13 12 11 12 12 13 13 14 15 15 16 13 12 13 12 12
17 14 14 14 14 13 11 7 7 5 6 6 8 8 8 8 9 9 10 12 12 12 13 12 13 13 13 13 12 11 9 9 10 10 10 10 11 11 13 10 10 9 9
17 15 13 12 12 10 7 6 6 5 4 4 4 6 8 8 8 8 9 11 11 11 12 12 13 12 13 13 13 13 11 9 7 7 7 8 8 9 9 10 8 7 6
19 15 15 12 12 10 10 9 9 12 9 8 6 4 4 6 7 7 7 9 10 10 11 11 11 11 11 12 13 12 10 8 8 8 8 7 8 8 9 9 10 12 7
17 16 15 15 13 11 8 9 9 7 6 6 5 5 7 10 9 8 7 6 6 8 11 11 12 12 13 13 17 19 19 18 10 12 9 7 7 8 8 8 9 10 12
16 16 18 18 15 11 9 4 5 4 4 4 4 5 8 9 7 6 5 4 5 5 8 9 9 12 17 14 14 19 21 16 19 21 13 14 15 15 15 14 12 10 10
15 15 16 16 16 13 8 4 1 3 3 3 4 4 4 3 5 6 7 4 4 4 8 8 8 9 14 20 15 15 16 18 22 23 18 16 16 17 18 18 16 14 14
13 11 12 11 10 10 10 7 2 0 6 7 7 6 5 1 2 4 2 1 2 4 9 10 13 13 9 12 14 15 16 19 21 22 24 24 18 21 21 20 20 21 18
13 12 10 8 8 7 6 6 2 4 8 13 10 8 9 7 2 1 1 0 4 7 7 9 11 14 15 18 18 18 21 22 23 23 25 25 27 28 27 22 22 24 24
Wind_Direction
89 81 83 86 85 79 75 68 62 60 58 58 55 53 51 48 47 40 37 37 38 36 35 33 28 21 18 19 13 8 8 8 5 3 2 360 359 357 356 355 336 7 1
92 87 92 92 90 84 76 71 66 62 58 58 58 56 53 49 43 43 39 38 39 37 36 33 31 32 27 28 21 15 10 7 3 2 7 18 6 360 0 344 336 6 3
94 93 100 100 96 89 82 70 63 62 64 62 60 57 52 50 48 39 41 38 35 31 32 35 35 40 38 30 30 25 19 17 14 14 10 354 3 356 357 355 355 1 1
101 104 104 105 99 92 81 73 71 71 71 67 64 59 54 49 48 47 43 41 38 37 35 30 31 42 47 40 30 16 14 15 11 38 37 358 7 357 353 357 355 356 358
104 106 95 104 100 92 83 79 78 78 75 69 65 61 55 51 48 46 44 43 44 46 48 46 49 58 65 58 46 24 21 30 27 19 354 349 346 354 347 343 3 356 334
107 105 102 110 109 98 89 87 86 82 77 72 69 67 62 60 58 51 47 46 49 47 46 48 63 72 68 61 51 44 34 42 80 18 346 347 342 340 341 335 330 332 330
109 104 112 114 109 103 99 96 93 88 86 84 80 75 70 66 62 57 48 47 50 43 37 36 38 46 64 72 57 43 35 21 21 10 4 350 348 336 333 332 338 340 343
114 114 110 116 114 112 110 108 103 95 89 88 85 77 73 71 65 55 43 49 51 48 40 37 38 40 47 59 58 51 41 33 25 360 349 6 347 341 338 333 328 326 341
120 118 118 119 120 119 117 115 108 99 93 86 85 79 77 73 68 55 45 47 52 44 43 44 49 56 57 62 67 65 56 47 23 11 353 346 346 348 346 338 329 327 351
127 126 122 121 125 125 121 121 115 108 101 94 84 83 88 79 77 73 60 52 57 47 52 64 63 64 71 83 89 95 101 106 66 22 9 341 339 348 353 355 357 355 10
134 132 130 128 127 130 123 123 124 122 113 101 95 96 105 97 94 85 37 59 57 69 61 64 72 79 83 71 72 104 128 107 81 98 9 347 350 351 357 359 4 8 24
137 137 136 134 132 133 128 124 129 123 120 117 112 107 106 99 100 82 70 73 72 77 76 77 65 88 110 81 72 101 81 90 100 116 38 9 353 1 4 7 8 14 18
137 140 142 136 145 134 129 129 131 127 122 117 114 115 104 101 101 101 84 88 75 75 83 73 58 73 53 64 45 46 59 65 60 78 47 44 21 21 14 26 26 26 25
142 143 145 139 143 144 131 133 126 125 120 115 111 110 105 105 89 91 82 62 69 59 58 41 35 43 51 48 37 34 37 27 18 32 43 42 40 27 19 45 50 36 31
145 144 145 144 142 141 137 129 126 120 114 110 102 103 97 91 71 75 66 64 56 54 54 48 43 46 53 51 43 39 33 26 25 21 33 41 39 40 32 34 42 40 47
141 141 147 146 141 142 140 126 117 116 102 104 101 92 97 88 65 69 65 59 54 54 64 53 46 44 48 44 42 37 31 23 24 23 18 37 39 33 26 28 26 26 31
142 134 144 143 138 140 138 127 113 106 105 99 91 88 92 88 73 60 44 58 53 53 55 56 60 56 57 53 50 37 33 28 22 21 20 9 26 26 19 13 12 15 20
144 137 137 138 136 138 133 123 110 91 93 76 63 73 95 90 65 61 63 45 43 55 53 43 48 46 47 50 52 57 39 26 23 15 6 4 5 4 25 25 13 5 0
152 142 140 142 145 140 137 115 113 70 87 53 33 40 49 69 57 65 61 51 51 47 44 41 38 47 44 48 48 59 68 60 40 33 21 19 14 13 9 27 23 15 4
162 160 152 150 149 142 132 128 123 115 100 99 75 31 13 33 49 50 48 36 49 42 42 36 29 34 31 27 33 23 30 46 51 33 20 14 6 3 0 2 16 10 11
169 164 166 160 158 148 150 149 153 162 151 152 145 102 40 35 49 51 43 26 25 28 28 25 30 28 29 28 21 19 23 33 26 18 8 2 354 346 338 335 334 334 339
170 170 170 172 167 164 155 153 154 145 144 142 130 120 139 151 136 119 118 73 68 31 14 17 10 13 6 10 355 349 352 357 17 10 10 2 355 348 337 323 319 317 319
172 171 175 177 175 171 165 135 130 26 51 88 108 131 154 152 134 118 104 78 61 73 31 28 21 356 337 350 354 339 340 354 350 344 352 344 338 334 329 324 317 309 303
179 174 175 173 174 176 176 167 136 5 21 59 110 44 37 132 147 140 149 119 56 43 11 27 14 5 344 323 341 343 339 338 337 335 339 333 332 329 323 319 316 308 302
182 183 179 177 181 177 175 179 171 40 353 2 2 7 359 75 170 158 128 109 23 18 359 2 351 345 2 343 338 337 336 332 331 329 327 328 333 325 321 318 312 309 301
188 187 189 187 185 179 177 186 230 341 339 333 347 350 348 348 343 209 171 353 350 350 354 357 340 328 332 328 330 332 329 330 329 328 325 323 321 319 320 317 314 309 304